Location: Melbourne
(37.8170°S, 144.9670°E)
Time: 01:23:31
(UTC+11:00)

ISS - All Passes

Search period start: 31 October 2014 00:00
Search period end: 10 November 2014 00:00
Orbit: 412 x 417 km, 51.6° (Epoch: 30 October)

Date Brightness Start Highest point End Pass type
(mag) Time Alt. Az. Time Alt. Az. Time Alt. Az.
31 Oct - 00:11:19 10° W 00:14:10 25° SSW 00:17:03 10° SSE night (unlit)
31 Oct - 05:04:33 10° SSW 05:07:32 28° SSE 05:10:30 10° E visible
31 Oct - 06:41:12 10° WSW 06:44:14 31° NW 06:47:14 10° NNE daylight
31 Oct - 21:45:49 10° N 21:48:24 21° NE 21:51:00 10° E night (unlit)
31 Oct - 23:21:43 10° WNW 23:24:55 38° SW 23:28:08 10° SE night (unlit)
01 Nov - 01:01:24 10° SSW 01:02:23 11° SSW 01:03:22 10° S night (unlit)
01 Nov - 04:15:42 10° SSW 04:18:14 19° SSE 04:20:44 10° ESE visible
01 Nov - 05:51:50 10° WSW 05:55:11 60° NW 05:58:29 10° NE daylight
01 Nov - 20:58:23 10° NE 20:59:26 11° NE 21:00:28 10° ENE night (unlit)
01 Nov - 22:32:20 10° WNW 22:35:41 68° SW 22:39:05 10° SE night (unlit)
02 Nov - 00:11:02 10° SW 00:12:55 14° SSW 00:14:48 10° SSE night (unlit)
02 Nov - 03:26:54 10° SSW 03:28:49 14° SSE 03:30:43 10° SE visible
02 Nov - 05:02:38 10° SW 05:06:01 71° SE 05:09:22 10° ENE visible
02 Nov - 06:41:30 10° WNW 06:42:15 11° NW 06:43:01 10° NW daylight
02 Nov - 21:43:10 10° NW 21:46:30 63° NE 21:49:52 10° SE visible
02 Nov - 23:20:57 10° WSW 23:23:27 19° SSW 23:25:58 10° SSE night (unlit)
03 Nov - 02:38:16 10° S 02:39:18 11° SSE 02:40:20 10° SSE visible
03 Nov - 04:13:31 10° SW 04:16:45 39° SE 04:19:56 10° ENE visible
03 Nov - 05:50:43 10° W 05:53:14 20° NW 05:55:44 10° N daylight
03 Nov - 20:54:17 10° NNW 20:57:20 32° NE 21:00:24 10° ESE visible
03 Nov - 22:31:04 10° W 22:34:02 27° SSW 22:37:00 10° SSE visible
04 Nov - 03:24:29 10° SSW 03:27:22 25° SSE 03:30:14 10° E visible
04 Nov - 05:00:58 10° WSW 05:04:07 36° NW 05:07:13 10° NNE visible
04 Nov - 20:05:52 10° N 20:08:11 18° NE 20:10:32 10° E daylight
04 Nov - 21:41:23 10° WNW 21:44:38 44° SW 21:47:54 10° SE visible
04 Nov - 23:20:46 10° SW 23:22:01 12° SSW 23:23:17 10° S visible
05 Nov - 02:35:29 10° SSW 02:37:52 18° SSE 02:40:15 10° ESE night (unlit)
05 Nov - 04:11:30 10° SW 04:14:53 72° NW 04:18:13 10° NE visible
05 Nov - 20:51:53 10° NW 20:55:15 81° SW 20:58:40 10° SE visible
05 Nov - 22:30:20 10° WSW 22:32:24 15° SSW 22:34:28 10° SSE visible
06 Nov - 01:46:34 10° S 01:48:17 13° SSE 01:49:59 10° SE night (unlit)
06 Nov - 03:22:11 10° SW 03:25:33 60° SE 03:28:52 10° ENE night (unlit)
06 Nov - 05:00:18 10° W 05:01:50 13° NW 05:03:22 10° NNW visible
06 Nov - 20:02:38 10° NNW 20:05:55 52° NE 20:09:14 10° ESE daylight
06 Nov - 21:40:10 10° WSW 21:42:48 21° SSW 21:45:27 10° SSE visible
07 Nov - 00:57:56 10° S 00:58:35 10° SSE 00:59:15 10° SSE visible
07 Nov - 02:32:56 10° SW 02:36:05 34° SSE 02:39:12 10° E night (unlit)
07 Nov - 04:09:53 10° WSW 04:12:38 23° NW 04:15:22 10° N night (unlit)
07 Nov - 19:13:43 10° NNW 19:16:37 27° NE 19:19:32 10° ESE daylight
07 Nov - 20:50:11 10° W 20:53:14 31° SSW 20:56:18 10° SSE visible
08 Nov - 01:43:45 10° SSW 01:46:31 23° SSE 01:49:16 10° E night (unlit)
08 Nov - 03:20:06 10° WSW 03:23:20 44° NW 03:26:32 10° NNE night (unlit)
08 Nov - 18:25:21 10° NNE 18:27:20 15° NE 18:29:19 10° E daylight
08 Nov - 20:00:23 10° WNW 20:03:41 52° SW 20:07:01 10° SE daylight
08 Nov - 21:39:29 10° SW 21:41:00 12° SSW 21:42:31 10° S visible
09 Nov - 00:54:38 10° SSW 00:56:51 16° SSE 00:59:03 10° ESE visible
09 Nov - 02:30:32 10° SW 02:33:55 87° NW 02:37:17 10° NE night (unlit)
09 Nov - 19:10:49 10° NW 19:14:10 85° NE 19:17:35 10° SE daylight
09 Nov - 20:49:00 10° WSW 20:51:14 16° SSW 20:53:29 10° SSE visible
